FW4154 Weather Reports


Display with metric or nautical units.
time (UTC)temp
F
wind
direction
speed
MPH
gust
MPH
rain 1hr
in
rain 24hr
in
rain mn
in
humidity
%
barometer
mb
20260504223858 72 150 8.0 11.0 0.00 0.00 0.00 59 1000.2
20260504223359 73 143 10.0 15.0 0.00 0.00 0.00 58 1000.2
20260504222856 72 139 9.0 13.0 0.00 0.00 0.00 60 1000.2
20260504221907 72 150 7.0 14.0 0.00 0.00 0.00 58 1000.2
20260504221359 72 137 9.0 14.0 0.00 0.00 0.00 61 1000.2
20260504220900 72 144 11.0 14.0 0.00 0.00 0.00 61 1000.2
20260504215905 72 148 10.0 14.0 0.00 0.00 0.00 61 1000.2
20260504215401 72 146 9.0 12.0 0.00 0.00 0.00 59 1000.2
20260504214851 72 138 10.0 14.0 0.00 0.00 0.00 60 1000.2
20260504214344 71 151 10.0 13.0 0.00 0.00 0.00 61 1000.2
20260504213353 71 158 7.0 10.0 0.00 0.00 0.00 61 1000.2
20260504212359 71 153 9.0 12.0 0.00 0.00 0.00 60 1000.2
20260504211400 71 161 6.0 9.0 0.00 0.00 0.00 61 1000.2
20260504210404 69 164 6.0 8.0 0.00 0.00 0.00 68 1000.2
20260504205850 70 169 6.0 8.0 0.00 0.00 0.00 67 1000.2
20260504204857 69 153 4.0 9.0 0.00 0.00 0.00 71 1000.2
20260504203900 69 174 3.0 6.0 0.00 0.00 0.00 71 1000.2
20260504203358 71 179 3.0 6.0 0.00 0.00 0.00 58 1000.2
20260504202857 69 208 1.0 4.0 0.00 0.00 0.00 67 1000.2
20260504201907 67 207 1.0 6.0 0.00 0.00 0.00 70 1000.2
20260504200855 68 219 3.0 5.0 0.00 0.00 0.00 68 1000.2
20260504195908 68 219 1.0 4.0 0.00 0.00 0.00 70 1000.2
20260504195357 67 219 2.0 4.0 0.00 0.00 0.00 73 1000.2
20260504194400 68 184 4.0 8.0 0.00 0.00 0.00 69 1000.2
20260504193854 69 157 6.0 9.0 0.00 0.00 0.00 66 1000.2
20260504192910 68 165 5.0 7.0 0.00 0.00 0.00 65 1000.2
20260504191855 66 223 3.0 5.0 0.00 0.00 0.00 75 1000.2
20260504190858 64 255 2.0 5.0 0.00 0.00 0.00 78 1000.2
20260504190348 64 239 3.0 5.0 0.00 0.00 0.00 78 1000.2
20260504185357 64 238 2.0 5.0 0.00 0.00 0.00 78 1000.2
20260504184856 65 248 3.0 6.0 0.00 0.00 0.00 77 1000.2
20260504183902 64 232 3.0 6.0 0.00 0.00 0.00 78 1000.2
20260504182855 63 236 5.0 7.0 0.00 0.00 0.00 78 1000.2
20260504182349 63 213 4.0 6.0 0.00 0.00 0.00 80 1000.2
20260504181353 63 221 4.0 9.0 0.00 0.00 0.00 81 1000.2
20260504180353 62 255 4.0 8.0 0.00 0.00 0.00 82 1000.2
20260504175405 62 252 4.0 7.0 0.00 0.00 0.00 81 1000.2
20260504174405 62 234 4.0 6.0 0.00 0.00 0.00 79 1000.2
20260504173840 62 250 3.0 5.0 0.00 0.00 0.00 82 1000.2
20260504173123 59 244 0.0 0.0 0.00 0.00 0.00 84 1000.2
20260504160355 57 222 0.0 0.0 0.00 0.00 0.00 87 1000.2
20260504150900 56 32 0.0 0.0 0.00 0.00 0.00 85 1000.2
20260504150350 56 32 0.0 0.0 0.00 0.00 0.00 86 1000.2
20260504130402 51 32 0.0 0.0 0.00 0.00 0.00 91 1000.2
20260504100347 53 21 0.0 0.0 0.00 0.00 0.00 87 1000.2
20260504081849 55 21 0.0 0.0 0.00 0.00 0.00 85 1000.2
20260504080902 55 21 0.0 0.0 0.00 0.00 0.00 85 1000.2
20260504070400 57 21 0.0 0.0 0.00 0.00 0.00 80 1000.2
20260504050351 61 21 0.0 0.0 0.00 0.00 0.00 76 1000.2
20260504045843 62 21 0.0 0.0 0.00 0.00 0.00 76 1000.2
20260504044857 62 21 0.0 0.0 0.00 0.00 0.00 74 1000.2
20260504043900 63 19 0.0 0.0 0.00 0.00 0.00 73 1000.2
20260504042911 64 19 0.0 0.0 0.00 0.00 0.00 71 1000.2
20260504042403 64 19 0.0 0.0 0.00 0.00 0.00 72 1000.2
20260504041849 64 21 0.0 0.0 0.00 0.00 0.00 73 1000.2
20260504040851 65 5 0.0 0.0 0.00 0.00 0.00 77 1000.2
20260504035858 65 305 0.0 0.0 0.00 0.00 0.00 69 1000.2
20260504034906 66 273 0.0 0.0 0.00 0.00 0.00 68 1000.2
20260504034348 67 271 0.0 0.0 0.00 0.00 0.00 67 1000.2
20260504033406 68 270 0.0 2.0 0.00 0.00 0.00 64 1000.2
20260504032856 68 270 0.0 2.0 0.00 0.00 0.00 64 1000.2
20260504032347 69 270 0.0 1.0 0.00 0.00 0.00 62 1000.2
20260504031352 69 265 0.0 1.0 0.00 0.00 0.00 60 1000.2
20260504030406 72 265 0.0 3.0 0.00 0.00 0.00 54 1000.2
20260504025854 72 263 0.0 3.0 0.00 0.00 0.00 53 1000.2
20260504025351 73 317 0.0 5.0 0.00 0.00 0.00 52 1000.2
20260504024406 74 300 1.0 5.0 0.00 0.00 0.00 52 1000.2
20260504023859 74 306 3.0 5.0 0.00 0.00 0.00 52 1000.2
20260504022910 75 312 2.0 8.0 0.00 0.00 0.00 52 1000.2
20260504021853 75 290 3.0 7.0 0.00 0.00 0.00 51 1000.2
20260504020858 75 292 2.0 7.0 0.00 0.00 0.00 51 1000.2
20260504015904 76 305 5.0 9.0 0.00 0.00 0.00 50 1000.2
20260504015359 76 288 2.0 8.0 0.00 0.00 0.00 49 1000.2
20260504014354 76 265 4.0 10.0 0.00 0.00 0.00 49 1000.2
20260504013849 76 283 3.0 10.0 0.00 0.00 0.00 49 1000.2
20260504012906 77 282 2.0 9.0 0.00 0.00 0.00 48 1000.2
20260504012356 77 277 5.0 9.0 0.00 0.00 0.00 47 1000.2
20260504011402 77 277 6.0 12.0 0.00 0.00 0.00 47 1000.2
20260504010851 77 276 5.0 10.0 0.00 0.00 0.00 47 1000.2
20260504005909 77 283 1.0 10.0 0.00 0.00 0.00 49 1000.2
20260504005404 77 257 5.0 10.0 0.00 0.00 0.00 48 1000.2
20260504004900 77 259 4.0 11.0 0.00 0.00 0.00 48 1000.2
20260504003905 77 293 2.0 8.0 0.00 0.00 0.00 48 1000.2
20260504003359 77 275 3.0 7.0 0.00 0.00 0.00 48 1000.2
20260504002900 77 302 3.0 10.0 0.00 0.00 0.00 49 1000.2
20260504002357 77 280 5.0 10.0 0.00 0.00 0.00 50 1000.2
20260504001854 77 286 6.0 9.0 0.00 0.00 0.00 49 1000.2
20260504000850 80 278 3.0 10.0 0.00 0.00 0.00 45 1000.2
20260503235849 79 263 6.0 10.0 0.00 0.00 0.00 45 1000.2
20260503235341 79 279 6.0 10.0 0.00 0.00 0.00 46 1000.2
20260503234400 78 279 4.0 12.0 0.00 0.00 0.00 47 1000.2
20260503233400 78 284 7.0 10.0 0.00 0.00 0.00 47 1000.2
20260503232850 79 279 5.0 11.0 0.00 0.00 0.00 47 1000.2
20260503231910 78 258 5.0 12.0 0.00 0.00 0.00 47 1000.2
20260503231400 78 275 7.0 12.0 0.00 0.00 0.00 48 1000.2
20260503230408 78 278 7.0 11.0 0.00 0.00 0.00 49 1000.2
20260503224853 78 260 6.0 12.0 0.00 0.00 0.00 49 1000.2